FW4529 Weather Reports


time (UTC)temp
F
wind
direction
speed
knots
gust
knots
rain 1hr
in
rain 24hr
in
rain mn
in
humidity
%
barometer
mb
20260905132233 71 172 5.2 11.3 0.00 0.32 0.10 56 1022.5
20260905131235 69 254 5.2 11.3 0.00 0.32 0.10 59 1022.5
20260905130234 71 311 7.0 14.8 0.00 0.32 0.10 56 1022.4
20260905125236 72 104 3.5 6.1 0.00 0.32 0.10 57 1022.2
20260905124234 71 27 5.2 11.3 0.00 0.32 0.10 59 1022.4
20260905123236 69 359 4.3 7.0 0.00 0.32 0.10 62 1022.4
20260905122233 70 1 6.1 12.2 0.00 0.32 0.10 61 1022.8
20260905121236 70 280 5.2 11.3 0.00 0.32 0.10 62 1022.7
20260905120234 68 58 4.3 8.7 0.00 0.32 0.10 65 1022.7
20260905115236 68 317 8.7 11.3 0.00 0.32 0.10 63 1022.8
20260905114233 70 183 3.5 7.8 0.00 0.32 0.10 62 1023.0
20260905113235 70 333 7.0 12.2 0.00 0.32 0.10 61 1023.0
20260905112234 69 26 6.1 13.0 0.00 0.32 0.10 62 1022.9
20260905111236 69 220 6.1 11.3 0.00 0.32 0.10 62 1023.0
20260905110314 69 321 5.2 11.3 0.00 0.32 0.10 62 1022.9
20260905105234 69 345 8.7 14.8 0.00 0.32 0.10 66 1022.7
20260905104234 68 322 5.2 9.6 0.00 0.32 0.10 66 1022.7
20260905103235 68 214 7.0 13.0 0.00 0.32 0.10 68 1023.1
20260905102234 67 209 4.3 7.8 0.00 0.32 0.10 69 1022.8
20260905101255 67 227 6.1 13.9 0.00 0.32 0.10 68 1023.0
20260905100253 68 75 6.1 13.0 0.00 0.32 0.10 70 1023.0
20260905095236 67 359 6.1 9.6 0.00 0.32 0.10 70 1022.6
20260905094234 67 95 6.1 11.3 0.00 0.32 0.10 69 1022.8
20260905093256 66 331 6.1 11.3 0.00 0.32 0.10 73 1022.6
20260905092234 67 52 6.1 13.0 0.00 0.32 0.10 71 1022.8
20260905091236 66 28 6.1 15.6 0.00 0.32 0.10 72 1022.7
20260905090234 66 85 6.1 12.2 0.00 0.32 0.10 72 1022.7
20260905085235 66 145 3.5 6.1 0.00 0.32 0.10 75 1022.8
20260905084233 65 80 5.2 9.6 0.00 0.32 0.10 76 1022.6
20260905083235 65 88 3.5 6.1 0.00 0.32 0.10 77 1022.6
20260905082235 64 198 5.2 11.3 0.00 0.32 0.10 77 1022.4
20260905081236 65 338 4.3 14.8 0.00 0.32 0.10 78 1022.3
20260905080234 64 310 5.2 9.6 0.00 0.32 0.10 78 1022.4
20260905075316 64 131 4.3 8.7 0.00 0.32 0.10 79 1022.5
20260905074233 64 318 5.2 9.6 0.00 0.32 0.10 80 1021.9
20260905073236 63 18 4.3 7.0 0.00 0.32 0.10 82 1022.1
20260905072234 63 326 7.8 13.0 0.00 0.32 0.10 82 1022.0
20260905071235 63 305 6.1 12.2 0.00 0.32 0.10 83 1021.8
20260905070234 63 140 7.0 13.0 0.00 0.32 0.10 84 1021.6
20260905065256 62 25 6.1 13.9 0.00 0.32 0.10 86 1021.6
20260905064233 62 351 5.2 11.3 0.00 0.32 0.10 87 1021.6
20260905063236 62 335 4.3 9.6 0.00 0.32 0.10 89 1021.5
20260905062233 62 352 5.2 9.6 0.00 0.32 0.10 90 1021.4
20260905061236 61 133 1.7 7.0 0.00 0.32 0.10 91 1021.0
20260905060234 61 108 3.5 7.8 0.00 0.32 0.10 91 1021.3
20260905055236 60 149 3.5 7.0 0.00 0.32 0.10 91 1021.3
20260905054234 60 176 4.3 7.0 0.00 0.32 0.10 92 1021.2
20260905053320 60 54 2.6 6.1 0.00 0.32 0.10 92 1021.0
20260905052235 60 138 0.9 4.3 0.00 0.32 0.10 92 1020.8
20260905051236 60 74 1.7 4.3 0.00 0.32 0.10 92 1020.6
20260905050254 60 156 2.6 7.0 0.00 0.32 0.10 92 1020.6
20260905045235 60 346 1.7 4.3 0.00 0.32 0.10 92 1020.5
20260905044234 60 110 2.6 5.2 0.00 0.32 0.10 92 1020.5
20260905043236 60 82 3.5 6.1 0.00 0.32 0.10 92 1020.3
20260905042233 60 35 2.6 4.3 0.00 0.32 0.10 92 1020.2
20260905041236 60 34 2.6 6.1 0.00 0.32 0.10 92 1020.2
20260905040254 60 81 2.6 5.2 0.00 0.32 0.10 92 1020.0
20260905035234 60 65 2.6 5.2 0.00 0.32 0.10 93 1019.9
20260905034234 60 118 2.6 5.2 0.00 0.32 0.10 93 1020.0
20260905033236 60 123 1.7 5.2 0.00 0.32 0.10 93 1019.9
20260905032233 60 77 3.5 7.8 0.00 0.32 0.10 92 1019.6
20260905031236 61 133 1.7 4.3 0.00 0.32 0.10 92 1019.5
20260905030252 61 20 4.3 7.8 0.00 0.32 0.10 92 1019.3
20260905025236 61 48 2.6 5.2 0.00 0.32 0.10 92 1019.2
20260905024234 61 44 3.5 8.7 0.00 0.32 0.10 92 1019.1
20260905023236 61 175 1.7 4.3 0.00 0.32 0.10 93 1018.7
20260905022235 61 146 2.6 5.2 0.00 0.32 0.10 93 1018.8
20260905021236 61 121 2.6 6.1 0.00 0.32 0.10 93 1018.7
20260905020234 61 128 2.6 5.2 0.00 0.32 0.10 93 1018.2
20260905015236 61 88 0.9 2.6 0.00 0.32 0.10 94 1017.9
20260905014233 61 127 2.6 6.1 0.00 0.32 0.10 94 1018.7
20260905013234 61 347 2.6 5.2 0.00 0.32 0.10 95 1018.8
20260905012234 60 127 1.7 2.6 0.00 0.32 0.10 96 1018.4
20260905011256 61 118 1.7 2.6 0.00 0.32 0.10 96 1018.0
20260905010234 60 178 2.6 4.3 0.00 0.32 0.10 96 1018.1
20260905005236 60 93 2.6 6.1 0.00 0.32 0.10 97 1018.0
20260905004253 60 255 1.7 2.6 0.00 0.32 0.10 97 1018.4
20260905003236 60 157 2.6 4.3 0.00 0.32 0.10 98 1018.3
20260905002234 60 204 3.5 5.2 0.00 0.32 0.10 98 1018.4
20260905001236 60 156 4.3 6.1 0.01 0.32 0.10 98 1018.1
20260905000234 60 170 3.5 7.8 0.01 0.32 0.10 98 1018.0
20260904235236 60 306 2.6 5.2 0.02 0.32 0.10 98 1018.0
20260904234234 60 28 4.3 7.8 0.02 0.32 0.10 98 1017.9
20260904233316 61 42 2.6 5.2 0.03 0.32 0.10 98 1018.0
20260904232235 61 174 2.6 4.3 0.04 0.32 0.10 98 1017.7
20260904231236 61 177 3.5 5.2 0.06 0.31 0.09 98 1017.4
20260904230234 60 57 3.5 8.7 0.09 0.31 0.09 98 1017.2
20260904225255 61 145 2.6 5.2 0.08 0.30 0.08 98 1017.0
20260904224234 60 4 2.6 5.2 0.10 0.30 0.08 98 1016.8
20260904223235 61 353 3.5 7.0 0.10 0.29 0.07 98 1017.0
20260904222234 61 23 2.6 6.1 0.11 0.28 0.06 98 1017.3
20260904221236 61 29 2.6 4.3 0.08 0.25 0.03 97 1017.1
20260904220235 61 90 2.6 7.0 0.06 0.22 0.00 97 1017.0
20260904215235 61 79 3.5 6.1 0.11 0.22 0.22 97 1016.8
20260904214254 61 329 3.5 7.0 0.10 0.20 0.20 96 1017.1
20260904213235 61 77 2.6 4.3 0.10 0.19 0.19 96 1017.2
20260904212234 61 1 4.3 8.7 0.13 0.17 0.17 96 1017.1
20260904211234 61 130 1.7 2.6 0.13 0.17 0.17 96 1016.7
20260904210235 61 156 1.7 4.3 0.12 0.16 0.16 95 1017.0
20260904205255 62 2 3.5 6.1 0.07 0.11 0.11 94 1017.0
20260904204234 62 17 4.3 7.8 0.06 0.10 0.10 93 1016.9
20260904203226 63 321 3.5 7.8 0.09 0.09 0.09 91 1017.4
20260904202234 63 58 3.5 7.0 0.04 0.04 0.04 89 1017.1
20260904201236 63 116 2.6 5.2 0.04 0.04 0.04 90 1016.6
20260904200233 63 7 5.2 11.3 0.04 0.04 0.04 91 1016.8
20260904195256 64 257 6.1 9.6 0.04 0.04 0.04 90 1017.2
20260904194235 66 301 7.8 13.0 0.04 0.04 0.04 88 1017.0
20260904193236 72 315 6.1 9.6 0.00 0.00 0.00 70 1016.8
20260904192234 72 19 4.3 9.6 0.00 0.00 0.00 69 1015.4
20260904191236 73 290 7.0 14.8 0.00 0.00 0.00 68 1015.4
20260904190254 74 342 5.2 8.7 0.00 0.00 0.00 69 1015.3
20260904185234 75 2 6.1 11.3 0.00 0.00 0.00 71 1015.2
20260904184234 76 329 8.7 18.2 0.00 0.00 0.00 76 1015.1
20260904183236 78 290 8.7 19.1 0.00 0.00 0.00 71 1013.7
20260904182255 77 168 3.5 6.1 0.00 0.00 0.00 69 1013.1
20260904181255 77 174 2.6 5.2 0.00 0.00 0.00 69 1012.8
20260904180252 78 190 3.5 7.8 0.00 0.00 0.00 69 1013.0
20260904175235 77 119 2.6 4.3 0.00 0.00 0.00 69 1012.7
20260904174233 77 170 3.5 7.0 0.00 0.00 0.00 69 1013.0
20260904173235 77 193 2.6 4.3 0.00 0.00 0.00 70 1012.9
20260904172258 77 174 2.6 6.1 0.00 0.00 0.00 70 1013.4
20260904171236 77 134 2.6 6.1 0.00 0.00 0.00 70 1013.5
20260904170234 77 194 1.7 4.3 0.00 0.00 0.00 70 1013.6
20260904165235 78 190 2.6 6.1 0.00 0.00 0.00 70 1013.7
20260904164234 77 190 3.5 7.8 0.00 0.00 0.00 70 1013.8
20260904163235 78 174 4.3 7.8 0.00 0.00 0.00 70 1013.8
20260904162235 77 179 3.5 6.1 0.00 0.00 0.00 70 1013.9
20260904161235 77 130 2.6 5.2 0.00 0.00 0.00 71 1013.9
20260904160234 77 190 3.5 6.1 0.00 0.00 0.00 71 1014.1
20260904155236 77 127 2.6 5.2 0.00 0.00 0.00 71 1014.1
20260904154235 77 176 4.3 9.6 0.00 0.00 0.00 71 1014.1
20260904153255 77 175 2.6 4.3 0.00 0.00 0.00 71 1014.2
20260904152235 77 159 3.5 5.2 0.00 0.00 0.00 72 1014.2
20260904151255 78 139 4.3 8.7 0.00 0.00 0.00 70 1014.5
20260904150233 77 144 3.5 6.1 0.00 0.00 0.00 71 1014.7
20260904145227 77 176 4.3 7.0 0.00 0.00 0.00 71 1014.9
20260904144253 77 149 2.6 5.2 0.00 0.00 0.00 71 1014.7
20260904143235 78 164 2.6 6.1 0.00 0.00 0.00 70 1014.9
20260904142236 78 151 3.5 7.8 0.00 0.00 0.00 71 1015.0
20260904141235 78 172 2.6 4.3 0.00 0.00 0.00 71 1015.3
20260904140234 77 181 2.6 7.0 0.00 0.00 0.00 71 1015.4
20260904135226 78 164 2.6 5.2 0.00 0.00 0.00 69 1015.7
20260904134234 76 271 3.5 5.2 0.00 0.00 0.00 71 1015.7
20260904133235 75 141 1.7 2.6 0.00 0.00 0.00 72 1015.7